カタログに戻る

COSMOS 1818 COOLANT

LostLEO
NORAD 36952·DEBRIS·🇷🇺 Russia

打ち上げ Feb 1, 1987 から Baikonur Cosmodrome

Loading…

次のパス (今後24時間)

TLE

古いSource: Space-Track

元期: Feb 3, 2012, 19:35 UTC

1 36952U 87011AG  12034.81598578  .00096644  00000-0  35036-1 0  9990
2 36952 065.0360 183.2468 0018170 250.1097 104.8140 14.32527113113552

AllMySatでCOSMOS 1818 COOLANTをリアルタイム追跡

Download on the App Store